Location: Hebron
(33.0265°N, 96.8636°W)
Time: 16:45:01
(UTC+00:00)

Okean 1 - Pass Details

Date: 11 December 2023
Orbit: 512 x 535 km, 82.5° (Epoch: 03 March)

Event Time Altitude Azimuth Distance (km) Brightness Sun altitude
Rises 11:20:05 0° 38° (NE) 2,629 7.1 -24.5°
Enters shadow 12:26:10 -61° 342° (NNW) 11,803 10.0 -11.2°
Exits shadow 12:50:39 -10° 352° (N) 3,896 7.3 -6.4°
Maximum altitude 12:59:38 86° 266° (W) 517 3.2 -4.7°
